Rhourd El Adra — 7TBS — position and weather

sailwx.info

Track history (hours):
 
Tides and Currents Weather Stations Pressure Air Temp Water Temp Dewpoint Dewpoint Depression Visibility Wind Speed Wind Dir Waves Ship Positions

Rhourd El Adra

Last reported at 2014-Oct-24 22:29 UTC. Time now 2014-Oct-25 11:11 UTC.
Position N 38°19' E 008°23'.

Length 156 m; draft 9 m.

Type: Ship (hazmat cat C). MMSI: 605026210.

Date/timePositionNaut miles runAvg speedWind from/ knotsBaromVisibWave heightAir tempDewpointWater temp
2014-Oct-24 22:29N 38°19' E 008°23'3314.7
2014-Oct-24 20:14N 38°30' E 009°03'1114.9
2014-Oct-24 19:28N 38°34' E 009°17'  
2014-Oct-19 23:25N 39°51' E 012°27'7 3.8
2014-Oct-19 21:29N 39°46' E 012°20'13713.2
2014-Oct-19 11:07N 38°33' E 009°51'713.4
2014-Oct-19 10:33N 38°28' E 009°43'1313.3
2014-Oct-19 09:33N 38°21' E 009°28'1313.3
2014-Oct-19 08:33N 38°14' E 009°14'1413.3
2014-Oct-19 07:32N 38°06' E 008°60'1313.4
2014-Oct-19 06:32N 37°59' E 008°46'1313.2
2014-Oct-19 05:33N 37°52' E 008°32'1413.6
2014-Oct-19 04:33N 37°45' E 008°17'1413.9
2014-Oct-19 03:33N 37°37' E 008°03'1414.1
2014-Oct-19 02:32N 37°29' E 007°48'39215.0
2014-Oct-18 00:23N 36°05' W 000°10'1314.3
2014-Oct-17 23:30N 35°53' W 000°13'  
Track history (hours):
 
Tides and Currents Weather Stations Pressure Air Temp Water Temp Dewpoint Dewpoint Depression Visibility Wind Speed Wind Dir Waves Ship Positions

Rhourd El Adra

Last reported at 2014-Oct-24 22:29 UTC. Time now 2014-Oct-25 11:11 UTC.
Position N 38°19' E 008°23'.

Length 156 m; draft 9 m.

Type: Ship (hazmat cat C). MMSI: 605026210.

Date/timePositionNaut miles runAvg speedWind from/ knotsBaromVisibWave heightAir tempDewpointWater temp
2014-Oct-24 22:29N 38°19' E 008°23'3314.7
2014-Oct-24 20:14N 38°30' E 009°03'1114.9
2014-Oct-24 19:28N 38°34' E 009°17'  
2014-Oct-19 23:25N 39°51' E 012°27'7 3.8
2014-Oct-19 21:29N 39°46' E 012°20'13713.2
2014-Oct-19 11:07N 38°33' E 009°51'713.4
2014-Oct-19 10:33N 38°28' E 009°43'1313.3
2014-Oct-19 09:33N 38°21' E 009°28'1313.3
2014-Oct-19 08:33N 38°14' E 009°14'1413.3
2014-Oct-19 07:32N 38°06' E 008°60'1313.4
2014-Oct-19 06:32N 37°59' E 008°46'1313.2
2014-Oct-19 05:33N 37°52' E 008°32'1413.6
2014-Oct-19 04:33N 37°45' E 008°17'1413.9
2014-Oct-19 03:33N 37°37' E 008°03'1414.1
2014-Oct-19 02:32N 37°29' E 007°48'39215.0
2014-Oct-18 00:23N 36°05' W 000°10'1314.3
2014-Oct-17 23:30N 35°53' W 000°13'  

Dump ship's entire track history